FW5863 Weather Reports


Display with metric or nautical units.
time (UTC)temp
F
wind
direction
speed
MPH
gust
MPH
rain 1hr
in
rain 24hr
in
rain mn
in
humidity
%
barometer
mb
20260903214500 85 279 5.0 10.0 0.00 0.28 0.27 71 1013.0
20260903213959 85 249 3.0 7.0 0.00 0.28 0.27 71 1013.0
20260903213459 85 275 3.0 7.0 0.00 0.28 0.27 73 1012.8
20260903213000 85 256 3.0 7.0 0.00 0.28 0.27 74 1012.7
20260903212459 85 249 4.0 6.0 0.00 0.28 0.27 73 1012.6
20260903211959 85 245 4.0 6.0 0.00 0.28 0.27 72 1012.5
20260903211459 85 242 3.0 6.0 0.00 0.28 0.27 75 1012.5
20260903210959 85 259 3.0 5.0 0.00 0.28 0.27 76 1012.5
20260903210000 84 266 4.0 7.0 0.00 0.28 0.27 72 1012.7
20260903205459 85 235 4.0 8.0 0.00 0.28 0.27 73 1012.7
20260903204959 85 250 5.0 8.0 0.00 0.28 0.27 73 1012.8
20260903204500 84 271 6.0 10.0 0.00 0.28 0.27 72 1012.8
20260903203959 84 259 6.0 10.0 0.00 0.28 0.27 73 1012.8
20260903203459 84 252 6.0 9.0 0.00 0.28 0.27 75 1012.9
20260903203000 84 242 5.0 10.0 0.00 0.28 0.27 74 1012.9
20260903202459 84 242 4.0 10.0 0.00 0.28 0.27 75 1013.0
20260903201959 84 248 5.0 8.0 0.00 0.28 0.27 75 1012.9
20260903201459 85 228 5.0 9.0 0.00 0.28 0.27 73 1013.0
20260903200959 85 243 5.0 9.0 0.00 0.28 0.27 72 1013.1
20260903200459 85 267 5.0 12.0 0.00 0.28 0.27 73 1013.2
20260903200000 85 273 6.0 12.0 0.00 0.28 0.27 73 1013.3
20260903195459 85 304 6.0 12.0 0.00 0.28 0.27 72 1013.2
20260903194959 85 240 6.0 10.0 0.00 0.28 0.27 73 1013.2
20260903194459 85 250 6.0 14.0 0.00 0.28 0.27 73 1013.3
20260903193959 85 328 5.0 14.0 0.00 0.28 0.27 73 1013.3
20260903192959 85 249 5.0 10.0 0.00 0.28 0.27 75 1013.3
20260903192459 84 230 5.0 10.0 0.00 0.28 0.27 74 1013.5
20260903191959 84 219 6.0 10.0 0.00 0.28 0.27 77 1013.5
20260903191500 84 247 6.0 12.0 0.00 0.28 0.27 75 1013.5
20260903190959 84 236 6.0 12.0 0.00 0.28 0.27 75 1013.5
20260903190459 84 239 5.0 10.0 0.00 0.28 0.27 75 1013.6
20260903185959 84 212 5.0 10.0 0.00 0.31 0.27 73 1013.6
20260903185458 84 257 6.0 10.0 0.00 0.31 0.27 75 1013.8
20260903184959 83 194 7.0 15.0 0.00 0.31 0.27 76 1013.8
20260903184459 83 231 7.0 15.0 0.00 0.31 0.27 76 1013.9
20260903183959 83 225 6.0 12.0 0.00 0.31 0.27 76 1014.0
20260903183459 83 189 7.0 12.0 0.00 0.31 0.27 76 1013.9
20260903182959 83 240 7.0 10.0 0.00 0.31 0.27 78 1014.1
20260903182459 83 209 7.0 13.0 0.00 0.31 0.27 79 1014.2
20260903181959 82 263 8.0 13.0 0.00 0.31 0.27 77 1014.3
20260903180959 83 244 6.0 12.0 0.00 0.31 0.27 76 1014.3
20260903180459 83 238 5.0 11.0 0.00 0.31 0.27 77 1014.3
20260903175959 82 246 7.0 11.0 0.00 0.33 0.27 78 1014.5
20260903175459 82 239 6.0 11.0 0.00 0.33 0.27 77 1014.5
20260903174459 82 240 7.0 13.0 0.00 0.33 0.27 77 1014.4
20260903173959 82 238 6.0 13.0 0.00 0.33 0.27 75 1014.4
20260903173459 82 255 6.0 11.0 0.00 0.33 0.27 77 1014.6
20260903172959 82 229 6.0 11.0 0.00 0.33 0.27 79 1014.5
20260903172459 81 286 6.0 11.0 0.00 0.33 0.27 78 1014.6
20260903171959 81 289 6.0 13.0 0.00 0.33 0.27 79 1014.6
20260903171459 81 270 6.0 12.0 0.00 0.33 0.27 79 1014.7
20260903170459 80 330 6.0 10.0 0.00 0.33 0.27 81 1014.9
20260903165959 80 262 6.0 10.0 0.00 0.33 0.27 83 1015.1
20260903165459 80 221 7.0 12.0 0.00 0.33 0.27 84 1015.1
20260903164459 79 246 7.0 14.0 0.00 0.33 0.27 84 1015.3
20260903163959 79 246 8.0 14.0 0.00 0.33 0.27 84 1015.3
20260903163459 78 263 8.0 14.0 0.00 0.33 0.27 84 1015.3
20260903162959 78 263 7.0 14.0 0.00 0.33 0.27 85 1015.3
20260903162458 78 247 6.0 13.0 0.00 0.33 0.27 86 1015.4
20260903161959 77 237 6.0 10.0 0.00 0.33 0.27 89 1015.5
20260903160959 76 255 7.0 14.0 0.00 0.33 0.27 87 1015.6
20260903160458 77 283 6.0 12.0 0.00 0.33 0.27 85 1015.8
20260903155458 77 240 6.0 13.0 0.00 0.33 0.27 86 1016.0
20260903154500 76 252 7.0 12.0 0.00 0.33 0.27 88 1016.0
20260903152959 75 293 6.0 12.0 0.00 0.33 0.27 90 1016.1
20260903152459 74 267 5.0 12.0 0.00 0.33 0.27 89 1016.0
20260903151958 74 248 4.0 9.0 0.00 0.33 0.27 88 1016.1
20260903151459 74 286 4.0 8.0 0.00 0.33 0.27 89 1016.3
20260903150958 74 255 6.0 12.0 0.00 0.33 0.27 89 1016.4
20260903150459 74 256 7.0 12.0 0.00 0.33 0.27 89 1016.3
20260903145959 74 257 6.0 13.0 0.00 0.33 0.27 89 1016.1
20260903145458 75 228 4.0 8.0 0.00 0.33 0.27 90 1016.3
20260903144958 74 283 4.0 8.0 0.00 0.33 0.27 91 1016.7
20260903144459 74 242 5.0 9.0 0.00 0.33 0.27 90 1016.7
20260903143959 74 250 4.0 9.0 0.00 0.33 0.27 91 1016.9
20260903143458 74 274 5.0 8.0 0.00 0.33 0.27 91 1016.8
20260903142959 74 282 5.0 9.0 0.00 0.33 0.27 91 1016.5
20260903141959 74 255 6.0 13.0 0.00 0.33 0.27 92 1016.6
20260903141459 73 288 6.0 13.0 0.00 0.33 0.27 91 1016.6
20260903140959 73 268 6.0 13.0 0.00 0.33 0.27 92 1016.5
20260903140458 73 282 6.0 13.0 0.00 0.33 0.27 91 1016.4
20260903135959 73 292 5.0 11.0 0.00 0.33 0.27 91 1016.3
20260903135459 73 284 4.0 9.0 0.00 0.33 0.27 93 1016.2
20260903134958 73 257 5.0 9.0 0.00 0.33 0.27 93 1016.1
20260903134459 73 250 6.0 10.0 0.00 0.33 0.27 93 1016.0
20260903133958 73 285 6.0 12.0 0.00 0.33 0.27 93 1015.9
20260903132959 72 239 5.0 10.0 0.00 0.33 0.27 95 1015.9
20260903132459 72 266 7.0 10.0 0.00 0.33 0.27 95 1015.7
20260903131958 71 251 7.0 13.0 0.00 0.33 0.27 95 1015.7
20260903131459 71 261 7.0 13.0 0.00 0.33 0.27 96 1015.9
20260903130959 71 297 6.0 14.0 0.00 0.33 0.27 97 1015.9
20260903130459 70 250 8.0 15.0 0.00 0.33 0.27 97 1015.8
20260903125959 69 50 9.0 15.0 0.00 0.33 0.27 97 1015.9
20260903125459 69 50 8.0 15.0 0.00 0.33 0.27 97 1015.9
20260903124958 69 50 8.0 15.0 0.00 0.33 0.27 97 1015.9
20260903124459 69 50 10.0 18.0 0.00 0.33 0.27 97 1016.1
20260903123959 69 50 10.0 18.0 0.00 0.33 0.27 97 1016.0
20260903123458 69 50 9.0 18.0 0.00 0.33 0.27 97 1015.9
20260903122959 69 50 11.0 18.0 0.00 0.33 0.27 98 1016.0
20260903122458 68 50 11.0 18.0 0.00 0.33 0.27 98 1016.0
20260903121958 68 50 9.0 17.0 0.00 0.33 0.27 98 1015.9
20260903121459 68 50 8.0 14.0 0.00 0.33 0.27 98 1015.8
20260903120959 68 50 8.0 14.0 0.00 0.33 0.27 98 1015.9
20260903120459 68 50 8.0 14.0 0.00 0.33 0.27 98 1015.9
20260903115959 68 50 7.0 14.0 0.00 0.33 0.27 98 1016.0
20260903114959 68 50 11.0 13.0 0.00 0.33 0.27 98 1015.8
20260903114500 0 0.0 0.0 0.00 0.33 0.27 1015.6
20260903113959 0 0.0 0.0 0.00 0.33 0.27 1015.4
20260903113458 0 0.0 0.0 0.00 0.33 0.27 1015.4
20260903112458 0 0.0 0.0 0.00 0.33 0.27 1015.0
20260903111959 0 0.0 0.0 0.00 0.33 0.27 1015.0
20260903111459 0 0.0 0.0 0.00 0.33 0.27 1014.6
20260903110959 0 0.0 0.0 0.00 0.33 0.27 1015.0
20260903110458 0 0.0 0.0 0.00 0.33 0.27 1015.2
20260903110000 0 0.0 0.0 0.00 0.33 0.27 1015.5
20260903105458 0 0.0 0.0 0.00 0.33 0.27 1015.7
20260903104958 0 0.0 0.0 0.00 0.33 0.27 1016.0
20260903103959 0 0.0 0.0 0.00 0.33 0.27 1016.5
20260903102459 0 0.0 0.0 0.00 0.33 0.27 1016.4
20260903101959 0 0.0 0.0 0.00 0.33 0.27 1016.5
20260903101459 0 0.0 0.0 0.00 0.33 0.27 1016.8
20260903100958 0 0.0 0.0 0.00 0.33 0.27 1016.6
20260903100458 0 0.0 0.0 0.00 0.33 0.27 1016.8
20260903095959 0 0.0 0.0 0.00 0.33 0.27 1016.7
20260903095458 0 0.0 0.0 0.00 0.33 0.27 1017.0
20260903094958 0 0.0 0.0 0.00 0.33 0.27 1017.1
20260903093959 0 0.0 0.0 0.00 0.33 0.27 1016.4
20260903093459 0 0.0 0.0 0.00 0.33 0.27 1016.2
20260903092959 66 50 3.0 6.0 0.00 0.33 0.27 99 1016.5
20260903092458 66 50 1.0 6.0 0.01 0.33 0.27 99 1016.5
20260903091958 66 50 1.0 6.0 0.01 0.33 0.27 99 1016.3
20260903091459 66 50 2.0 6.0 0.01 0.33 0.27 99 1016.2
20260903090958 66 50 2.0 5.0 0.02 0.33 0.27 99 1016.4
20260903090458 66 50 1.0 5.0 0.03 0.33 0.27 99 1016.3
20260903085959 66 50 2.0 8.0 0.03 0.33 0.27 99 1016.4
20260903085459 66 50 2.0 8.0 0.04 0.33 0.27 99 1016.6
20260903084459 65 50 2.0 5.0 0.04 0.33 0.27 99 1016.7
20260903083958 65 50 2.0 4.0 0.04 0.33 0.27 99 1016.8
20260903083458 65 50 0.0 3.0 0.04 0.33 0.27 99 1016.6
20260903082959 65 50 0.0 0.0 0.04 0.33 0.27 99 1016.3
20260903082458 65 50 1.0 3.0 0.03 0.32 0.26 99 1016.3
20260903080459 65 50 2.0 5.0 0.07 0.30 0.24 99 1017.1
20260903075458 66 50 4.0 9.0 0.07 0.29 0.23 99 1017.6
20260903074958 66 50 3.0 9.0 0.07 0.29 0.23 99 1017.7
20260903074459 66 50 3.0 9.0 0.07 0.29 0.23 99 1017.7
20260903073958 66 50 2.0 4.0 0.07 0.29 0.23 99 1017.6
20260903073458 66 50 0.0 3.0 0.08 0.29 0.23 99 1017.6
20260903072959 66 50 0.0 2.0 0.08 0.29 0.23 99 1017.8
20260903072458 66 50 1.0 4.0 0.08 0.29 0.23 99 1017.7
20260903071958 66 50 2.0 10.0 0.08 0.29 0.23 99 1018.3
20260903071459 66 50 5.0 12.0 0.07 0.28 0.22 99 1018.2
20260903070958 66 50 4.0 12.0 0.03 0.24 0.18 99 1019.5
20260903070458 66 50 3.0 6.0 0.03 0.23 0.17 99 1018.7
20260903065959 66 50 1.0 5.0 0.04 0.23 0.17 99 1018.5
20260903065458 66 50 0.0 3.0 0.04 0.22 0.16 99 1017.9
20260903064958 66 50 1.0 4.0 0.04 0.22 0.16 99 1017.5
20260903063959 66 50 0.0 0.0 0.06 0.22 0.16 99 1017.6
20260903063458 66 50 0.0 0.0 0.06 0.21 0.15 99 1017.1
20260903062959 66 50 0.0 0.0 0.06 0.21 0.15 99 1017.1
20260903062459 66 50 0.0 0.0 0.07 0.21 0.15 99 1017.4
20260903060958 66 50 1.0 5.0 0.08 0.21 0.15 99 1017.9
20260903060458 66 50 1.0 5.0 0.07 0.20 0.14 99 1018.7
20260903055959 66 50 0.0 2.0 0.07 0.19 0.13 99 1018.5
20260903055458 66 50 1.0 3.0 0.07 0.18 0.12 99 1018.5
20260903054958 66 50 2.0 4.0 0.09 0.18 0.12 99 1018.3
20260903054459 66 50 2.0 4.0 0.09 0.17 0.11 99 1018.2
20260903052959 66 50 5.0 9.0 0.09 0.15 0.09 99 1017.4
20260903052458 66 50 5.0 9.0 0.08 0.14 0.08 99 1017.3
20260903051958 66 50 3.0 9.0 0.08 0.14 0.08 99 1017.6
20260903051459 66 50 1.0 4.0 0.07 0.13 0.07 98 1018.1
20260903050959 66 50 1.0 3.0 0.07 0.13 0.07 98 1018.8
20260903050458 66 50 1.0 4.0 0.07 0.13 0.07 98 1018.9
20260903045458 66 50 2.0 4.0 0.05 0.11 0.05 98 1019.4
20260903044958 66 50 2.0 4.0 0.03 0.09 0.03 98 1019.7
20260903044459 66 50 1.0 4.0 0.02 0.08 0.02 98 1019.7
20260903043958 66 50 1.0 4.0 0.01 0.07 0.01 98 1019.7
20260903042959 67 50 3.0 6.0 0.00 0.06 0.00 99 1018.6
20260903042458 0 0.0 0.0 0.00 0.06 0.00
20260903041459 0 0.0 0.0 0.00 0.06 0.00
20260903040458 0 0.0 0.0 0.00 0.06 0.00
20260903035459 67 50 1.0 5.0 0.12 0.18 0.18 99 1019.0
20260903034959 67 50 2.0 8.0 0.10 0.16 0.16 99 1019.1
20260903034459 68 50 3.0 8.0 0.08 0.14 0.14 99 1019.2
20260903033959 68 50 1.0 8.0 0.06 0.11 0.11 99 1019.9
20260903033459 68 50 0.0 3.0 0.04 0.09 0.09 99 1019.4
20260903032959 68 50 0.0 0.0 0.03 0.08 0.08 99 1019.2
20260903032459 68 50 0.0 0.0 0.02 0.07 0.07 99 1019.2
20260903031958 68 50 0.0 0.0 0.01 0.06 0.06 99 1019.2
20260903031459 68 50 0.0 0.0 0.01 0.06 0.06 99 1019.2
20260903030958 68 50 0.0 0.0 0.01 0.06 0.06 99 1019.2
20260903030459 68 50 0.0 0.0 0.01 0.06 0.06 99 1019.0
20260903025959 68 50 0.0 0.0 0.01 0.06 0.06 99 1019.0
20260903025459 68 50 1.0 5.0 0.01 0.06 0.06 99 1018.8
20260903024958 68 50 2.0 5.0 0.01 0.06 0.06 99 1018.7
20260903024459 68 50 1.0 5.0 0.01 0.06 0.06 99 1018.5
20260903023958 68 50 0.0 2.0 0.00 0.05 0.05 99 1019.1
20260903022459 67 50 1.0 4.0 0.00 0.05 0.05 99 1017.9
20260903021958 67 50 0.0 0.0 0.00 0.05 0.05 99 1018.6
20260903021459 67 50 0.0 0.0 0.00 0.05 0.05 99 1018.9
20260903020958 67 50 0.0 1.0 0.00 0.05 0.05 99 1018.9
20260903015959 67 50 1.0 4.0 0.00 0.05 0.05 98 1019.3
20260903015459 67 50 2.0 4.0 0.00 0.05 0.05 98 1019.4
20260903014958 67 50 2.0 4.0 0.00 0.05 0.05 98 1019.1
20260903014459 67 50 2.0 6.0 0.00 0.05 0.05 98 1018.8
20260903013958 67 50 3.0 6.0 0.00 0.05 0.05 98 1018.6
20260903013459 67 50 1.0 6.0 0.00 0.05 0.05 98 1018.6
20260903012959 67 50 0.0 5.0 0.00 0.05 0.05 98 1018.6
20260903012500 67 50 1.0 4.0 0.00 0.05 0.05 98 1018.6
20260903011958 67 50 2.0 4.0 0.00 0.05 0.05 98 1018.7
20260903011459 67 50 2.0 5.0 0.00 0.05 0.05 98 1018.5
20260903010958 67 50 2.0 5.0 0.00 0.05 0.05 98 1018.3
20260903005958 67 50 3.0 6.0 0.00 0.07 0.05 98 1018.4
20260903004958 67 50 1.0 6.0 0.00 0.07 0.05 98 1018.5
20260903003959 67 50 1.0 6.0 0.00 0.07 0.05 98 1019.0
20260903003458 67 50 1.0 4.0 0.00 0.07 0.05 98 1019.0
20260903002959 67 50 2.0 6.0 0.00 0.07 0.05 98 1019.0
20260903002458 68 50 2.0 6.0 0.00 0.07 0.05 98 1018.8
20260903001958 68 50 3.0 6.0 0.00 0.07 0.05 98 1018.8
20260903001459 68 50 3.0 6.0 0.00 0.07 0.05 98 1018.8
20260903000958 68 50 3.0 5.0 0.00 0.07 0.05 98 1018.9
20260903000459 68 50 3.0 6.0 0.00 0.07 0.05 98 1018.8
20260902235959 68 50 3.0 6.0 0.00 0.07 0.05 98 1018.4
20260902235459 68 50 4.0 6.0 0.00 0.07 0.05 98 1018.3
20260902234959 68 50 3.0 8.0 0.00 0.07 0.05 98 1018.1
20260902234459 68 50 2.0 8.0 0.00 0.07 0.05 98 1018.2
20260902233959 68 50 2.0 6.0 0.00 0.07 0.05 98 1018.2
20260902233459 68 50 3.0 6.0 0.00 0.07 0.05 98 1018.3
20260902232959 69 50 2.0 6.0 0.00 0.07 0.05 98 1018.2
20260902232458 69 50 2.0 5.0 0.00 0.07 0.05 98 1018.3
20260902231958 69 50 3.0 5.0 0.00 0.07 0.05 98 1018.3
20260902230959 69 50 2.0 8.0 0.00 0.07 0.05 98 1018.1
20260902230458 69 50 3.0 6.0 0.00 0.07 0.05 98 1018.1
20260902225959 69 50 4.0 6.0 0.00 0.07 0.05 98 1018.1
20260902225458 69 50 3.0 8.0 0.00 0.07 0.05 98 1018.2
20260902224959 69 50 3.0 8.0 0.00 0.07 0.05 98 1018.2
20260902224459 69 50 3.0 5.0 0.00 0.07 0.05 98 1018.3
20260902223958 69 50 3.0 5.0 0.00 0.07 0.05 98 1018.4
20260902223500 69 50 3.0 6.0 0.00 0.07 0.05 98 1018.5
20260902222959 69 50 4.0 8.0 0.00 0.07 0.05 98 1018.5
20260902222459 69 50 5.0 9.0 0.00 0.07 0.05 98 1018.5
20260902221959 69 50 4.0 9.0 0.00 0.07 0.05 97 1018.6
20260902221459 69 50 3.0 8.0 0.00 0.07 0.05 98 1018.7
20260902220958 69 50 3.0 8.0 0.00 0.07 0.05 98 1018.9
20260902220458 69 50 3.0 6.0 0.00 0.07 0.05 97 1019.0
20260902220000 70 50 3.0 5.0 0.00 0.07 0.05 98 1019.0
20260902215458 70 50 3.0 5.0 0.00 0.07 0.05 97 1019.2